OE3KJN-13 Weather Reports


time (UTC)temp
F
wind
direction
speed
knots
gust
knots
rain 1hr
in
rain 24hr
in
rain mn
in
humidity
%
barometer
mb
20260504081707 81 248 4.3 7.0 0.00 0.00 0.00 100
20260504081206 80 262 4.3 8.7 0.00 0.00 0.00 100
20260504080706 80 157 1.7 7.8 0.00 0.00 0.00 100
20260504080206 81 278 1.7 8.7 0.00 0.00 0.00 100
20260504070202 81 29 0.0 2.6 0.00 0.00 0.00 100
20260504060159 75 247 0.9 2.6 0.00 0.00 0.00 100
20260504050656 73 330 0.0 4.3 0.00 0.00 0.00 100
20260504050155 72 306 0.9 4.3 0.00 0.00 0.00 100
20260504045655 70 272 0.0 5.2 0.00 0.00 0.00 100
20260504045155 69 313 1.7 4.3 0.00 0.00 0.00 100
20260504044654 70 209 0.9 3.5 0.00 0.00 0.00 100
20260504044154 69 278 1.7 4.3 0.00 0.00 0.00 100
20260504043654 68 182 0.0 5.2 0.00 0.00 0.00 100
20260504043154 66 285 1.7 4.3 0.00 0.00 0.00 100
20260504042653 66 310 1.7 3.5 0.00 0.00 0.00 100
20260504042153 65 313 1.7 4.3 0.00 0.00 0.00 100
20260504041653 65 296 0.0 6.1 0.00 0.00 0.00 100
20260504041152 65 268 2.6 4.3 0.00 0.00 0.00 100
20260504040652 63 289 1.7 5.2 0.00 0.00 0.00 100
20260504040152 63 239 0.9 5.2 0.00 0.00 0.00 100
20260504035652 62 288 3.5 5.2 0.00 0.00 0.00 100
20260504035151 62 322 0.9 7.0 0.00 0.00 0.00 100
20260504034651 62 246 3.5 7.0 0.00 0.00 0.00 100
20260504034151 62 343 2.6 7.8 0.00 0.00 0.00 100
20260504033650 61 222 2.6 7.8 0.00 0.00 0.00 100
20260504033150 61 227 6.1 8.7 0.00 0.00 0.00 100
20260504032650 61 253 1.7 8.7 0.00 0.00 0.00 100
20260504032149 62 289 5.2 9.6 0.00 0.00 0.00 100
20260504031649 62 265 6.1 11.3 0.00 0.00 0.00 100
20260504031149 62 296 5.2 12.2 0.00 0.00 0.00 100
20260504030649 62 251 7.8 13.0 0.00 0.00 0.00 100
20260504030148 62 253 4.3 11.3 0.00 0.00 0.00 100
20260504025648 63 291 7.8 10.4 0.00 0.00 0.00 100
20260504025148 63 216 9.6 11.3 0.00 0.00 0.00 100
20260504024647 62 230 7.8 13.9 0.00 0.00 0.00 100
20260504024147 62 233 9.6 11.3 0.00 0.00 0.00 100
20260504023647 62 260 5.2 10.4 0.00 0.00 0.00 100
20260504023146 62 257 1.7 12.2 0.00 0.00 0.00 100
20260504022646 62 240 4.3 9.6 0.00 0.00 0.00 100
20260504022146 62 219 7.8 13.0 0.00 0.00 0.00 100
20260504021646 61 241 7.8 11.3 0.00 0.00 0.00 100
20260504021145 62 246 5.2 9.6 0.00 0.00 0.00 100
20260504020645 62 239 5.2 8.7 0.00 0.00 0.00 100
20260504020145 62 209 7.0 8.7 0.00 0.00 0.00 100
20260504015644 63 241 7.0 9.6 0.00 0.00 0.00 100
20260504015144 63 251 2.6 8.7 0.00 0.00 0.00 100
20260504014644 62 258 2.6 13.9 0.00 0.00 0.00 100
20260504014144 62 236 10.4 13.0 0.00 0.00 0.00 100
20260504013643 63 260 6.1 13.0 0.00 0.00 0.00 100
20260504013143 63 291 2.6 11.3 0.00 0.00 0.00 100
20260504012643 63 253 7.8 10.4 0.00 0.00 0.00 100
20260504012142 63 307 2.6 12.2 0.00 0.00 0.00 100
20260504011642 64 319 5.2 11.3 0.00 0.00 0.00 100
20260504011142 64 291 7.0 15.6 0.00 0.00 0.00 100
20260504010642 63 244 7.8 13.9 0.00 0.00 0.00 100
20260504010141 63 239 2.6 10.4 0.00 0.00 0.00 100
20260504005641 64 236 7.0 13.9 0.00 0.00 0.00 100
20260504005141 64 270 8.7 12.2 0.00 0.00 0.00 100
20260504004640 64 271 4.3 13.9 0.00 0.00 0.00 100
20260504004140 64 223 4.3 11.3 0.00 0.00 0.00 100
20260504003640 64 326 1.7 13.0 0.00 0.00 0.00 100
20260504003139 64 268 10.4 16.5 0.00 0.00 0.00 100
20260504002639 64 246 7.0 13.0 0.00 0.00 0.00 100
20260504002139 64 289 5.2 12.2 0.00 0.00 0.00 100
20260504001639 64 306 5.2 10.4 0.00 0.00 0.00 100
20260504001138 64 254 2.6 13.0 0.00 0.00 0.00 100
20260504000638 64 274 7.8 10.4 0.00 0.00 0.00 100
20260504000138 64 251 1.7 13.0 0.00 0.00 0.00 100
20260503235637 65 264 7.8 12.2 0.00 0.00 0.00 100
20260503235137 65 253 4.3 13.0 0.00 0.00 0.00 100
20260503234637 64 319 1.7 12.2 0.00 0.00 0.00 100
20260503234137 64 299 5.2 11.3 0.00 0.00 0.00 100
20260503233636 64 316 2.6 10.4 0.00 0.00 0.00 100
20260503233136 64 272 7.0 11.3 0.00 0.00 0.00 100
20260503232636 65 170 4.3 9.6 0.00 0.00 0.00 100
20260503232135 64 260 7.0 11.3 0.00 0.00 0.00 100
20260503231635 65 284 0.9 8.7 0.00 0.00 0.00 100
20260503231135 65 247 5.2 13.0 0.00 0.00 0.00 100
20260503230635 65 281 5.2 11.3 0.00 0.00 0.00 100
20260503230134 65 244 4.3 8.7 0.00 0.00 0.00 100
20260503225634 65 302 5.2 10.4 0.00 0.00 0.00 100
20260503225134 65 217 5.2 11.3 0.00 0.00 0.00 100
20260503224633 65 307 3.5 11.3 0.00 0.00 0.00 100
20260503224133 65 254 5.2 10.4 0.00 0.00 0.00 100
20260503223633 65 241 1.7 10.4 0.00 0.00 0.00 100
20260503223132 65 210 6.1 11.3 0.00 0.00 0.00 100
20260503222632 65 268 5.2 12.2 0.00 0.00 0.00 100
20260503222132 65 262 9.6 13.0 0.00 0.00 0.00 100
20260503221632 65 206 0.0 9.6 0.00 0.00 0.00 100
20260503221131 65 278 4.3 10.4 0.00 0.00 0.00 100
20260503220631 65 317 2.6 9.6 0.00 0.00 0.00 100
20260503220131 65 298 2.6 12.2 0.00 0.00 0.00 100
20260503215630 65 241 2.6 10.4 0.00 0.00 0.00 100
20260503215130 66 227 3.5 13.0 0.00 0.00 0.00 100
20260503214630 65 271 5.2 13.0 0.00 0.00 0.00 100
20260503214130 65 227 7.0 11.3 0.00 0.00 0.00 100
20260503213629 66 234 5.2 13.9 0.00 0.00 0.00 100
20260503213129 65 251 10.4 13.0 0.00 0.00 0.00 100
20260503212629 66 233 5.2 13.0 0.00 0.00 0.00 100
20260503212128 66 310 0.9 12.2 0.00 0.00 0.00 100
20260503211628 66 253 9.6 15.6 0.00 0.00 0.00 100
20260503211128 66 232 9.6 13.9 0.00 0.00 0.00 100
20260503210628 65 257 7.8 12.2 0.00 0.00 0.00 100
20260503210127 66 257 6.1 11.3 0.00 0.00 0.00 100
20260503205627 66 282 3.5 10.4 0.00 0.00 0.00 100
20260503205127 66 267 5.2 10.4 0.00 0.00 0.00 100
20260503204626 66 229 6.1 13.9 0.00 0.00 0.00 100
20260503204126 66 244 7.0 10.4 0.00 0.00 0.00 100
20260503203626 66 241 6.1 10.4 0.00 0.00 0.00 100
20260503203125 66 279 1.7 10.4 0.00 0.00 0.00 100
20260503202625 67 172 1.7 11.3 0.00 0.00 0.00 100
20260503202125 67 225 7.0 10.4 0.00 0.00 0.00 100
20260503201625 67 250 7.8 10.4 0.00 0.00 0.00 100
20260503201124 67 208 1.7 12.2 0.00 0.00 0.00 100
20260503200624 67 251 0.9 11.3 0.00 0.00 0.00 100
20260503200124 67 292 7.8 12.2 0.00 0.00 0.00 100
20260503195623 67 229 8.7 10.4 0.00 0.00 0.00 100
20260503195123 68 223 7.8 12.2 0.00 0.00 0.00 100
20260503194623 68 264 2.6 12.2 0.00 0.00 0.00 100
20260503194123 68 233 8.7 11.3 0.00 0.00 0.00 100
20260503193622 68 240 7.8 13.0 0.00 0.00 0.00 100
20260503193122 68 232 9.6 11.3 0.00 0.00 0.00 100
20260503192622 68 243 4.3 13.9 0.00 0.00 0.00 100
20260503192121 68 232 7.8 13.9 0.00 0.00 0.00 100
20260503191621 68 220 4.3 13.9 0.00 0.00 0.00 100
20260503191121 68 246 4.3 13.0 0.00 0.00 0.00 100
20260503190621 69 255 4.3 12.2 0.00 0.00 0.00 100
20260503190120 69 189 8.7 13.0 0.00 0.00 0.00 100
20260503185620 68 244 9.6 12.2 0.00 0.00 0.00 100
20260503185120 68 219 5.2 12.2 0.00 0.00 0.00 100
20260503184619 68 175 1.7 13.0 0.00 0.00 0.00 100
20260503184119 69 216 4.3 9.6 0.00 0.00 0.00 100
20260503183619 69 275 5.2 8.7 0.00 0.00 0.00 100
20260503183118 69 250 6.1 9.6 0.00 0.00 0.00 100
20260503182618 69 268 5.2 8.7 0.00 0.00 0.00 100
20260503182118 69 216 6.1 9.6 0.00 0.00 0.00 100
20260503181618 69 201 4.3 10.4 0.00 0.00 0.00 100
20260503181117 70 292 3.5 10.4 0.00 0.00 0.00 100
20260503180617 70 137 1.7 13.0 0.00 0.00 0.00 100
20260503180117 70 255 5.2 11.3 0.00 0.00 0.00 100
20260503175616 70 251 1.7 10.4 0.00 0.00 0.00 100
20260503175116 70 234 7.8 9.6 0.00 0.00 0.00 100
20260503174616 71 258 7.0 9.6 0.00 0.00 0.00 100
20260503174116 71 244 7.0 9.6 0.00 0.00 0.00 100
20260503173615 71 239 6.1 8.7 0.00 0.00 0.00 100
20260503173115 71 189 1.7 12.2 0.00 0.00 0.00 100
20260503172615 72 258 4.3 13.0 0.00 0.00 0.00 100
20260503172114 72 254 5.2 14.8 0.00 0.00 0.00 100
20260503171614 72 241 8.7 13.9 0.00 0.00 0.00 100
20260503171114 72 253 7.0 11.3 0.00 0.00 0.00 100
20260503170614 73 248 4.3 12.2 0.00 0.00 0.00 100
20260503170113 73 227 7.0 12.2 0.00 0.00 0.00 100
20260503160110 75 216 2.6 14.8 0.00 0.00 0.00 100
20260503150607 76 250 7.8 16.5 0.00 0.00 0.00 100
20260503150106 77 212 10.4 19.1 0.00 0.00 0.00 100
20260503131100 80 202 8.7 20.0 0.00 0.00 0.00 100
20260503130559 79 225 11.3 18.2 0.00 0.00 0.00 100
20260503110553 78 229 7.8 13.9 0.00 0.00 0.00 100